sat.trackr.live / text

‹ back to catalog

STARLINK-32024

NORAD 60112 · 2024-117X

PAYLOAD ACTIVE UNKNOWN

§ Identity

Operator
Country
US
Launch date
2024-06-23
Launch site
AFETR
Launch vehicle
Mass (kg)
RCS (m²)

Purposes: comms

External: N2YO · Heavens-Above · Gunter

§ Orbital elements

Epoch: 2026-05-25T03:16:57.879264Z

Period
94.11 min
Inclination
53.1607°
Eccentricity
0.0001130
Mean motion
15.30196348 rev/d
Perigee alt
474.5 km
Apogee alt
476.0 km
Semi-major
6,853.4 km
B*
5.4563e-5
RAAN
41.8339°
Arg perigee
85.2357°
Mean anomaly
274.8772°
Rev number
10,859

§ Raw data

STARLINK-320241 60112U 24117X   26145.13678101  .00001257  00000+0  54563-4 0  99912 60112  53.1607  41.8339 0001130  85.2357 274.8772 15.30196348108597

JSON: /api/v1/satellites/60112 · /tle

For live sub-satellite position, see the globe view (requires WebGL).

§ Visibility from observer

Set your observer location to see the next 7 days of passes ≥ 10°. The values pass through the URL so the page stays shareable.

No JS? Fill the form by hand. The geolocation button needs JavaScript.